This is the latest recevied weather packets stored in our database for station/object K1RFS. If no packets are shown the sender has not sent any weather packets the latest 10 day(s).
| Time | Temp. | Humidity | Pressure | Rain* | Wind** | Luminosity | Snow |
|---|---|---|---|---|---|---|---|
| 1778071784 | 5.56° C | 70% | 1001.5 hPa | 0 mm | - | 10 W/m² | - |
| 1778071481 | 5.56° C | 70% | 1001.4 hPa | 0 mm | - | 9 W/m² | - |
| 1778071179 | 6.11° C | 69% | 1001.4 hPa | 0 mm | - | 7 W/m² | - |
| 1778070877 | 6.11° C | 67% | 1001.4 hPa | 0 mm | - | 5 W/m² | - |
| 1778070574 | 6.11° C | 65% | 1001.3 hPa | 0 mm | - | 3 W/m² | - |
| 1778070271 | 6.67° C | 65% | 1001.3 hPa | 0 mm | - | 2 W/m² | - |
| 1778069969 | 6.11° C | 64% | 1001.3 hPa | 0 mm | - | 1 W/m² | - |
| 1778069666 | 6.11° C | 67% | 1001.3 hPa | 0 mm | - | 1 W/m² | - |
| 1778069363 | 6.11° C | 67% | 1000.9 hPa | 0 mm | - | 0 W/m² | - |
| 1778069060 | 6.11° C | 67% | 1001.2 hPa | 0 mm | - | 0 W/m² | - |
| 1778068757 | 6.11° C | 67% | 1001.2 hPa | 0 mm | - | 0 W/m² | - |
| 1778068455 | 6.11° C | 68% | 1001.2 hPa | 0 mm | - | 0 W/m² | - |
| 1778068154 | 6.11° C | 69% | 1001 hPa | 0 mm | - | 0 W/m² | - |
| 1778067851 | 5.56° C | 69% | 1001 hPa | 0 mm | - | 0 W/m² | - |
| 1778067550 | 5.56° C | 71% | 1001 hPa | 0 mm | - | 0 W/m² | - |
| 1778067247 | 5.56° C | 72% | 1001.2 hPa | 0 mm | - | 0 W/m² | - |
| 1778066943 | 5.56° C | 72% | 1001 hPa | 0 mm | - | 0 W/m² | - |
| 1778066641 | 5.56° C | 72% | 1001 hPa | 0 mm | - | 0 W/m² | - |
| 1778066338 | 6.11° C | 68% | 1000.8 hPa | 0 mm | - | 0 W/m² | - |
| 1778066036 | 5.56° C | 68% | 1001 hPa | 0 mm | - | 0 W/m² | - |
| 1778065733 | 5.56° C | 68% | 1000.8 hPa | 0 mm | - | 0 W/m² | - |
| 1778065430 | 5.56° C | 69% | 1000.9 hPa | 0 mm | - | 0 W/m² | - |
| 1778065127 | 5.56° C | 68% | 1000.9 hPa | 0 mm | - | 0 W/m² | - |
| 1778064823 | 5.56° C | 69% | 1000.8 hPa | 0 mm | - | 0 W/m² | - |
| 1778064521 | 5.56° C | 70% | 1000.8 hPa | 0 mm | - | 0 W/m² | - |
* Rain latest hour (hover to see other rain measurements)
** Current wind speed in m/s (hover to see current wind gust speed)